Starlink 11521

operational
NORAD ID: 62597 Int'l Des: 2025-008 Owner: SPXS Country: US Constellation: starlink
LEOCIRCULAR

About Starlink 11521

Description loading...

Live Position

Loading 3D Globe...

Upcoming Passes

Altitude History

Altitude vs Time

uPlot chart will show altitude changes over time

Two-Line Element Set

1 62597U 25008L 25354.06810271 .00228517 00000-0 17328-2 0 9996
2 62597 43.0013 245.9331 0002534 269.1146 90.9432 15.70881257 54765
Epoch: Dec 20, 2025 • Age: 22 hours

Current Status

Altitude 359.5 km
Velocity 7.70 km/s
Sub-Earth Point 41.48°N, 128.52°W
Launch Date Jan 13, 2025
Age 0.9 years
Type internet

Technical Details

Classification Payload
Mass 960.00 kg
Dry Mass 910.00 kg
Total Mass 960.00 kg
Length 0.30 m
Diameter 4.10 m
Span 29.00 m
Shape Box + pan
Manufacturer SPXS
Bus Type Starlink V2MD
Phase Status In Orbit
Owner/State SPXS/US

Large Constellations

Loading constellations...